{"data":{"norad_id":68391,"epoch":"2026-09-19T16:40:29.657280Z","epoch_age_seconds":117970,"freshness":"FRESH","line1":"1 68391U 26063M   26262.69478770  .00016335  00000+0  50729-3 0  9993","line2":"2 68391  97.2851  43.5381 0002936  98.1727 261.9849 15.33437874 27620","mean_motion":15.33437874,"eccentricity":0.0002936,"inclination_deg":97.2851,"raan_deg":43.5381,"arg_perigee_deg":98.1727,"mean_anomaly_deg":261.9849,"bstar":0.00050729,"rev_number":2762,"period_min":93.906641045961,"perigee_km":463.55506579852,"apogee_km":467.57368724682,"semimajor_km":6843.7013765227,"source":"CELESTRAK","updated_at":"2026-09-20T09:00:43.895455Z"}}